This is the latest recevied weather packets stored in our database for station/object KB2EAR-13. If no packets are shown the sender has not sent any weather packets the latest 10 day(s).
| Time | Temp. | Humidity | Pressure | Rain* | Wind** | Luminosity | Snow |
|---|---|---|---|---|---|---|---|
| 1777380377 | 13.33° C | 60% | 1022.6 hPa | 0 mm | - | - | - |
| 1777380317 | 13.33° C | 60% | 1022.8 hPa | 0 mm | - | - | - |
| 1777380017 | 13.33° C | 60% | 1022.6 hPa | 0 mm | - | - | - |
| 1777379717 | 12.78° C | 62% | 1022.6 hPa | 0 mm | - | - | - |
| 1777379417 | 12.78° C | 62% | 1022.7 hPa | 0 mm | - | - | - |
| 1777379116 | 12.22° C | 63% | 1022.8 hPa | 0 mm | - | - | - |
| 1777378816 | 12.22° C | 64% | 1022.9 hPa | 0 mm | - | - | - |
| 1777378517 | 12.22° C | 65% | 1022.9 hPa | 0 mm | - | - | - |
| 1777378216 | 11.67° C | 69% | 1023 hPa | 0 mm | - | - | - |
| 1777377916 | 11.11° C | 69% | 1023 hPa | 0 mm | - | - | - |
| 1777377617 | 10.56° C | 74% | 1023 hPa | 0 mm | - | - | - |
| 1777377317 | 9.44° C | 76% | 1023 hPa | 0 mm | - | - | - |
| 1777377017 | 8.89° C | 77% | 1023.1 hPa | 0 mm | - | - | - |
| 1777376716 | 8.33° C | 80% | 1023.1 hPa | 0 mm | - | - | - |
| 1777376417 | 8.33° C | 83% | 1022.8 hPa | 0 mm | - | - | - |
| 1777376116 | 7.78° C | 84% | 1022.8 hPa | 0 mm | - | - | - |
| 1777375816 | 7.22° C | 86% | 1022.7 hPa | 0 mm | - | - | - |
| 1777375516 | 7.22° C | 86% | 1022.8 hPa | 0 mm | - | - | - |
| 1777375216 | 7.22° C | 86% | 1022.5 hPa | 0 mm | - | - | - |
| 1777374917 | 7.22° C | 88% | 1022.7 hPa | 0 mm | - | - | - |
| 1777374616 | 6.67° C | 89% | 1022.6 hPa | 0 mm | - | - | - |
| 1777374316 | 6.11° C | 89% | 1022.7 hPa | 0 mm | - | - | - |
| 1777374016 | 6.11° C | 91% | 1022.8 hPa | 0 mm | - | - | - |
| 1777373716 | - | - | - | 0 mm | - | - | - |
| 1777373416 | - | - | - | 0 mm | - | - | - |
* Rain latest hour (hover to see other rain measurements)
** Current wind speed in m/s (hover to see current wind gust speed)